YO2LDK-13 Weather Reports


time (UTC)temp
C
wind
direction
speed
KPH
gust
KPH
rain 1hr
cm
rain 24hr
cm
rain mn
cm
humidity
%
barometer
mb
20260503194020 10 54 0.0 0.0 0.00 0.00 0.00 58 1008.8
20260503193520 10 54 0.0 0.0 0.00 0.00 0.00 59 1009.1
20260503193020 10 54 0.0 0.0 0.00 0.00 0.00 59 1009.1
20260503192519 10 54 0.0 0.0 0.00 0.00 0.00 57 1009.1
20260503192020 10 54 0.0 0.0 0.00 0.00 0.00 57 1009.1
20260503191519 10 54 0.0 0.0 0.00 0.00 0.00 57 1008.8
20260503191019 10 54 0.0 0.0 0.00 0.00 0.00 56 1009.1
20260503190519 10 54 0.0 0.0 0.00 0.00 0.00 57 1009.1
20260503190019 11 54 0.0 0.0 0.00 0.00 0.00 56 1008.8
20260503185519 11 54 0.0 0.0 0.00 0.00 0.00 56 1008.8
20260503185019 11 54 0.0 0.0 0.00 0.00 0.00 56 1008.8
20260503184520 11 54 0.0 0.0 0.00 0.00 0.00 56 1008.8
20260503184020 11 54 0.0 0.0 0.00 0.00 0.00 58 1008.8
20260503183520 11 54 0.0 0.0 0.00 0.00 0.00 56 1008.8
20260503183020 12 54 0.0 0.0 0.00 0.00 0.00 54 1008.5
20260503182520 12 54 0.0 0.0 0.00 0.00 0.00 53 1008.5
20260503182019 12 54 0.0 0.0 0.00 0.00 0.00 54 1008.5
20260503181519 12 54 0.0 0.0 0.00 0.00 0.00 54 1008.5
20260503181020 13 54 0.0 0.0 0.00 0.00 0.00 52 1008.5
20260503180519 13 54 0.0 0.0 0.00 0.00 0.00 49 1008.5
20260503180019 13 54 0.0 0.0 0.00 0.00 0.00 49 1008.5
20260503175520 14 54 0.0 0.0 0.00 0.00 0.00 49 1008.5
20260503175019 14 54 0.0 0.0 0.00 0.00 0.00 47 1008.5
20260503174519 15 54 0.0 0.0 0.00 0.00 0.00 45 1008.5
20260503174020 15 54 0.0 0.0 0.00 0.00 0.00 43 1008.5
20260503173519 16 54 0.0 0.0 0.00 0.00 0.00 42 1008.5
20260503173019 16 54 0.0 0.0 0.00 0.00 0.00 41 1008.5
20260503172519 16 54 0.0 0.0 0.00 0.00 0.00 39 1008.5
20260503172020 17 54 0.0 0.0 0.00 0.00 0.00 40 1008.5
20260503171519 17 54 0.0 0.0 0.00 0.00 0.00 37 1008.5
20260503171019 17 54 0.0 0.0 0.00 0.00 0.00 36 1008.1
20260503170519 17 54 0.0 0.0 0.00 0.00 0.00 36 1008.5
20260503150520 21 288 0.0 0.0 0.00 0.00 0.00 27 1008.8
20260503131019 20 264 3.2 3.2 0.00 0.00 0.00 35 1009.8
20260503130519 20 246 0.0 0.0 0.00 0.00 0.00 31 1009.8
20260503110519 19 252 0.0 0.0 0.00 0.00 0.00 34 1011.2
20260503081519 15 293 3.2 3.2 0.00 0.00 0.00 45 1011.9
20260503081019 15 311 9.7 9.7 0.00 0.00 0.00 46 1012.2
20260503080519 15 294 3.2 3.2 0.00 0.00 0.00 46 1012.2
20260503072520 14 283 0.0 0.0 0.00 0.00 0.00 51 1012.2
20260503072019 13 270 3.2 3.2 0.00 0.00 0.00 52 1012.2
20260503071520 13 293 6.4 6.4 0.00 0.00 0.00 51 1012.2
20260503071019 13 264 1.6 1.6 0.00 0.00 0.00 54 1012.2
20260503070519 13 312 4.8 6.4 0.00 0.00 0.00 53 1012.2
20260503055020 11 294 3.2 3.2 0.00 0.00 0.00 67 1011.9
20260503054520 10 354 3.2 3.2 0.00 0.00 0.00 68 1011.9
20260503054019 10 282 3.2 3.2 0.00 0.00 0.00 68 1011.9
20260503053519 10 300 4.8 4.8 0.00 0.00 0.00 69 1011.9
20260503053019 10 276 3.2 3.2 0.00 0.00 0.00 71 1011.5
20260503052519 9 276 0.0 0.0 0.00 0.00 0.00 71 1011.9
20260503052019 9 300 3.2 3.2 0.00 0.00 0.00 74 1011.5
20260503051519 8 276 0.0 0.0 0.00 0.00 0.00 75 1011.9
20260503051019 8 288 0.0 0.0 0.00 0.00 0.00 76 1011.5
20260503050519 7 288 1.6 1.6 0.00 0.00 0.00 77 1011.5
20260503050019 7 294 4.8 4.8 0.00 0.00 0.00 79 1011.5
20260503045519 6 276 0.0 0.0 0.00 0.00 0.00 80 1011.5
20260503045019 6 294 0.0 0.0 0.00 0.00 0.00 81 1011.5
20260503044519 6 306 0.0 0.0 0.00 0.00 0.00 82 1011.2
20260503044019 5 306 0.0 0.0 0.00 0.00 0.00 83 1011.5
20260503043519 5 306 0.0 0.0 0.00 0.00 0.00 85 1011.5
20260503043020 4 306 0.0 0.0 0.00 0.00 0.00 86 1011.5
20260503042527 4 306 0.0 0.0 0.00 0.00 0.00 87 1011.5
20260503042020 3 306 0.0 0.0 0.00 0.00 0.00 88 1011.2
20260503041519 3 306 0.0 0.0 0.00 0.00 0.00 88 1011.5
20260503041019 3 306 0.0 0.0 0.00 0.00 0.00 89 1011.5
20260503040519 3 306 0.0 0.0 0.00 0.00 0.00 90 1011.2
20260503040020 3 306 0.0 0.0 0.00 0.00 0.00 90 1010.8
20260503035520 3 306 0.0 0.0 0.00 0.00 0.00 90 1011.2
20260503035019 3 306 0.0 0.0 0.00 0.00 0.00 90 1011.2
20260503034519 3 306 0.0 0.0 0.00 0.00 0.00 89 1011.2
20260503034020 3 306 0.0 0.0 0.00 0.00 0.00 89 1011.2
20260503033519 3 306 0.0 0.0 0.00 0.00 0.00 89 1011.2
20260503033019 3 306 0.0 0.0 0.00 0.00 0.00 89 1011.2
20260503032519 3 306 0.0 0.0 0.00 0.00 0.00 89 1010.8
20260503032019 3 306 0.0 0.0 0.00 0.00 0.00 90 1010.8
20260503031519 3 306 0.0 0.0 0.00 0.00 0.00 90 1010.8
20260503031019 3 306 0.0 0.0 0.00 0.00 0.00 90 1010.8
20260503030519 3 306 0.0 0.0 0.00 0.00 0.00 90 1010.8
20260503030019 3 306 0.0 0.0 0.00 0.00 0.00 91 1010.8
20260503025520 3 306 0.0 0.0 0.00 0.00 0.00 91 1010.5
20260503025019 3 306 0.0 0.0 0.00 0.00 0.00 90 1010.8
20260503024519 3 306 0.0 0.0 0.00 0.00 0.00 90 1010.8
20260503024027 3 306 0.0 0.0 0.00 0.00 0.00 89 1010.5
20260503023519 3 306 0.0 0.0 0.00 0.00 0.00 89 1010.5
20260503023019 3 306 0.0 0.0 0.00 0.00 0.00 88 1010.5
20260503022519 3 306 0.0 0.0 0.00 0.00 0.00 88 1010.5
20260503022022 4 306 0.0 0.0 0.00 0.00 0.00 87 1010.5
20260503021519 4 306 0.0 0.0 0.00 0.00 0.00 86 1010.5
20260503021019 4 306 0.0 0.0 0.00 0.00 0.00 85 1010.5
20260503020520 4 306 0.0 0.0 0.00 0.00 0.00 87 1010.5
20260503020020 5 306 0.0 0.0 0.00 0.00 0.00 86 1010.5
20260503015519 5 306 0.0 0.0 0.00 0.00 0.00 85 1010.2
20260503015019 5 306 0.0 0.0 0.00 0.00 0.00 84 1010.5
20260503014520 5 306 0.0 0.0 0.00 0.00 0.00 83 1010.5
20260503014020 5 306 0.0 0.0 0.00 0.00 0.00 84 1010.2
20260503013519 5 306 0.0 0.0 0.00 0.00 0.00 85 1010.2
20260503013019 5 306 0.0 0.0 0.00 0.00 0.00 84 1010.2
20260503012519 5 306 0.0 0.0 0.00 0.00 0.00 83 1010.2
20260503012020 6 306 0.0 0.0 0.00 0.00 0.00 81 1010.2
20260503011519 5 306 0.0 0.0 0.00 0.00 0.00 81 1009.8
20260503011019 5 306 0.0 0.0 0.00 0.00 0.00 81 1009.8
20260503010519 6 306 0.0 0.0 0.00 0.00 0.00 80 1009.8
20260503010019 6 306 0.0 0.0 0.00 0.00 0.00 79 1009.8
20260503005519 6 306 0.0 0.0 0.00 0.00 0.00 79 1009.8
20260503005019 6 312 0.0 0.0 0.00 0.00 0.00 78 1009.8
20260503004519 6 312 0.0 0.0 0.00 0.00 0.00 77 1009.8
20260503004019 6 288 0.0 0.0 0.00 0.00 0.00 76 1010.2
20260503003519 6 288 0.0 0.0 0.00 0.00 0.00 77 1009.8
20260503003019 6 288 0.0 0.0 0.00 0.00 0.00 77 1009.8
20260503002519 6 288 0.0 0.0 0.00 0.00 0.00 76 1009.8
20260503002019 6 288 0.0 0.0 0.00 0.00 0.00 76 1009.8
20260503001519 6 288 1.6 1.6 0.00 0.00 0.00 76 1010.2
20260503001019 6 282 0.0 0.0 0.00 0.00 0.00 75 1010.2
20260503000519 6 282 0.0 0.0 0.00 0.00 0.00 75 1009.8
20260503000019 7 282 0.0 0.0 0.00 0.00 0.00 74 1010.2
20260502235519 7 282 0.0 0.0 0.00 0.00 0.00 73 1009.8
20260502235019 7 282 0.0 0.0 0.00 0.00 0.00 72 1009.8
20260502234520 7 282 0.0 0.0 0.00 0.00 0.00 70 1009.8
20260502234019 7 282 0.0 0.0 0.00 0.00 0.00 69 1009.8
20260502233519 7 282 0.0 0.0 0.00 0.00 0.00 70 1010.2
20260502233019 7 282 0.0 0.0 0.00 0.00 0.00 70 1010.2
20260502232520 7 282 0.0 0.0 0.00 0.00 0.00 68 1010.2
20260502232019 7 282 0.0 0.0 0.00 0.00 0.00 67 1009.8
20260502231519 8 282 0.0 0.0 0.00 0.00 0.00 67 1009.8
20260502231019 8 282 0.0 0.0 0.00 0.00 0.00 66 1010.2
20260502230519 8 282 0.0 0.0 0.00 0.00 0.00 65 1009.8
20260502230019 8 282 0.0 0.0 0.00 0.00 0.00 64 1010.2
20260502225519 7 282 0.0 0.0 0.00 0.00 0.00 65 1010.2
20260502225019 7 282 0.0 0.0 0.00 0.00 0.00 66 1010.2
20260502224519 7 282 0.0 0.0 0.00 0.00 0.00 67 1010.2
20260502224019 7 282 0.0 0.0 0.00 0.00 0.00 68 1009.5
20260502223519 7 66 0.0 0.0 0.00 0.00 0.00 72 1009.8
20260502223019 7 66 0.0 0.0 0.00 0.00 0.00 71 1009.5
20260502222519 7 66 0.0 0.0 0.00 0.00 0.00 72 1009.5
20260502222019 7 66 0.0 0.0 0.00 0.00 0.00 72 1009.8
20260502221519 7 66 0.0 0.0 0.00 0.00 0.00 72 1009.5
20260502221019 7 66 0.0 0.0 0.00 0.00 0.00 72 1009.5
20260502220520 7 66 0.0 0.0 0.00 0.00 0.00 71 1009.5
20260502220020 7 66 0.0 0.0 0.00 0.00 0.00 70 1009.5
20260502215519 7 66 0.0 0.0 0.00 0.00 0.00 70 1009.5
20260502215020 7 66 0.0 0.0 0.00 0.00 0.00 70 1009.5
20260502214519 7 66 0.0 0.0 0.00 0.00 0.00 69 1009.5
20260502214020 8 66 0.0 0.0 0.00 0.00 0.00 68 1009.5
20260502213519 8 66 0.0 0.0 0.00 0.00 0.00 67 1009.5
20260502213019 8 66 0.0 0.0 0.00 0.00 0.00 67 1009.1
20260502212519 8 66 0.0 0.0 0.00 0.00 0.00 66 1009.1
20260502212019 8 66 0.0 0.0 0.00 0.00 0.00 67 1009.5
20260502211519 8 66 0.0 0.0 0.00 0.00 0.00 66 1009.5
20260502211019 8 66 0.0 0.0 0.00 0.00 0.00 65 1009.1
20260502210519 8 66 0.0 0.0 0.00 0.00 0.00 66 1009.5
20260502210019 9 66 0.0 0.0 0.00 0.00 0.00 64 1009.5
20260502205519 9 66 0.0 0.0 0.00 0.00 0.00 63 1009.5
20260502205019 9 66 0.0 0.0 0.00 0.00 0.00 62 1009.1
20260502204520 10 66 0.0 0.0 0.00 0.00 0.00 61 1009.1
20260502204019 10 66 0.0 0.0 0.00 0.00 0.00 60 1009.5
20260502203519 10 66 0.0 0.0 0.00 0.00 0.00 59 1009.5
20260502203019 10 66 0.0 0.0 0.00 0.00 0.00 58 1009.5
20260502202519 10 66 0.0 0.0 0.00 0.00 0.00 56 1009.5
20260502202019 11 66 0.0 0.0 0.00 0.00 0.00 56 1009.5
20260502201520 11 66 0.0 0.0 0.00 0.00 0.00 54 1009.5
20260502201020 11 66 0.0 0.0 0.00 0.00 0.00 53 1009.5
20260502200519 11 66 0.0 0.0 0.00 0.00 0.00 52 1009.5
20260502200019 12 66 0.0 0.0 0.00 0.00 0.00 51 1009.5
20260502195519 12 66 0.0 0.0 0.00 0.00 0.00 51 1009.5
20260502195019 12 66 0.0 0.0 0.00 0.00 0.00 50 1009.5
20260502194520 13 66 0.0 0.0 0.00 0.00 0.00 48 1009.1